Flag for Cuba Weather past 2 weeks in Santiago de Cuba, Cuba

Now
86 °F

Scattered clouds.


Feels Like: 86 °F
Forecast: 72 / 86 °F
Wind: 10 mph from Northeast

Location: Santiago De Cuba - Oriente

Current Time: Mar 30, 2015 at 1:38:16 PM

Latest Report: Mar 30, 2015 at 12:50 PM


Visibility: N/A

Pressure: 30.07 "Hg

Humidity: 43%

Dew point: 61 °F

Location of Santiago de CubaLocation

Historic Weather in Santiago de Cuba — Graph

°F

Santiago de Cuba temperature yesterday

Maximum temperature yesterday: 91 °F (at 12:52 PM)
Minimum temperature yesterday: 73 °F (at 12:51 AM)
Average temperature yesterday: 80 °F

Past Weeks' High & Low Weather Summary

 TemperatureHumidityPressure
High91 °F (Mar 29, 12:52 PM)89% (Mar 28, 6:56 AM)30.12 "Hg (Mar 28, 6:56 AM)
Low70 °F (Mar 17, 6:51 AM)30% (Mar 29, 3:51 PM)29.92 "Hg (Mar 18, 4:51 PM)
Average78 °F67%30.03 "Hg
* Reported Mar 15 11:50 AM — Mar 30 11:50 AM, Santiago de Cuba, Weather by CustomWeather, © 2015

Note: Actual official high and low records may vary slightly from our data, if they occured in-between our weather recording intervals... More about our weather records

Advertising

Santiago de Cuba weather history for previous 24 hours

 ConditionsComfort  
Time TempWeatherWind HumidityBarometerVisibility
11:50 AM
Mon, Mar 30
86 °FScattered clouds.13 mph43%30.09 "HgN/A
10:51 AM86 °FPassing clouds.14 mph43%30.09 "HgN/A
9:51 AM81 °FPassing clouds.16 mph54%30.09 "HgN/A
8:51 AM79 °FPassing clouds.14 mph54%30.09 "HgN/A
7:51 AM73 °FPassing clouds.12 mph65%30.09 "Hg6 mi
6:50 AM73 °FPassing clouds.13 mph65%30.07 "Hg6 mi
5:51 AM73 °FPassing clouds.13 mph65%30.07 "Hg6 mi
4:52 AM73 °FPassing clouds.15 mph69%30.04 "Hg6 mi
3:52 AM73 °FPassing clouds.14 mph69%30.04 "Hg6 mi
2:52 AM75 °FPassing clouds.15 mph65%30.07 "Hg6 mi
1:52 AM75 °FPassing clouds.15 mph65%30.09 "Hg6 mi
12:50 AM75 °FPassing clouds.16 mph69%30.09 "Hg6 mi
11:51 PM
Sun, Mar 29
75 °FPassing clouds.14 mph74%30.12 "Hg5 mi
10:50 PM75 °FPartly cloudy.17 mph74%30.12 "Hg5 mi
9:52 PM77 °FPartly cloudy.14 mph69%30.12 "Hg5 mi
8:51 PM79 °FPassing clouds.15 mph61%30.09 "Hg5 mi
7:51 PM81 °FThundershowers. Scattered clouds.13 mph58%30.07 "Hg5 mi
6:51 PM82 °FScattered clouds.14 mph51%30.07 "Hg6 mi
5:52 PM86 °FScattered clouds.10 mph40%30.04 "Hg6 mi
4:53 PM86 °FScattered clouds.6 mph59%30.01 "Hg6 mi
3:51 PM91 °FScattered clouds.9 mph30%30.04 "Hg6 mi
2:50 PM90 °FScattered clouds.15 mph31%30.04 "Hg6 mi
1:51 PM91 °FScattered clouds.14 mph32%30.07 "Hg6 mi
Weather by CustomWeather, © 2015

See weather overviewHow to use our weather pages